DG8SBT-13 Weather Reports


time (UTC)temp
F
wind
direction
speed
knots
gust
knots
rain 1hr
in
rain 24hr
in
rain mn
in
humidity
%
barometer
mb
20260506062408 73 0 0.0 0.0 0.00 0.00 0.00 40 1008.4
20260506042443 72 0 0.0 0.0 0.00 0.00 0.00 40 1008.6
20260506035452 72 0 0.0 0.0 0.00 0.00 0.00 39 1008.8
20260506032501 73 0 0.0 0.0 0.00 0.00 0.00 38 1009.0
20260506025512 73 0 0.0 0.0 0.00 0.00 0.00 39 1008.8
20260506022522 73 0 0.0 0.0 0.00 0.00 0.00 39 1009.2
20260506012543 73 0 0.0 0.0 0.00 0.00 0.00 39 1009.4
20260506005553 73 0 0.0 0.0 0.00 0.00 0.00 39 1009.2
20260506002602 73 0 0.0 0.0 0.00 0.00 0.00 38 1009.6
20260505235612 74 0 0.0 0.0 0.00 0.00 0.00 39 1009.9
20260505232623 74 0 0.0 0.0 0.00 0.00 0.00 39 1010.1
20260505225633 74 0 0.0 0.0 0.00 0.00 0.00 39 1010.0
20260505222642 75 0 0.0 0.0 0.00 0.00 0.00 39 1010.0
20260505215652 75 0 0.0 0.0 0.00 0.00 0.00 39 1009.9
20260505212701 75 0 0.0 0.0 0.00 0.00 0.00 39 1010.2
20260505205712 75 0 0.0 0.0 0.00 0.00 0.00 39 1010.0
20260505202723 75 0 0.0 0.0 0.00 0.00 0.00 39 1009.8
20260505195733 76 0 0.0 0.0 0.00 0.00 0.00 39 1009.4
20260505192744 76 0 0.0 0.0 0.00 0.00 0.00 39 1009.2
20260505185755 77 0 0.0 0.0 0.00 0.00 0.00 38 1009.1
20260505182802 78 0 0.0 0.0 0.00 0.00 0.00 37 1009.2
20260505175812 78 0 0.0 0.0 0.00 0.00 0.00 38 1009.0
20260505172822 78 0 0.0 0.0 0.00 0.00 0.00 42 1009.3
20260505165831 79 0 0.0 0.0 0.00 0.00 0.00 39 1009.0
20260505162840 79 0 0.0 0.0 0.00 0.00 0.00 40 1008.9
20260505152859 79 0 0.0 0.0 0.00 0.00 0.00 36 1009.2
20260505123000 81 0 0.0 0.0 0.00 0.00 0.00 33 1009.0
20260505120009 81 0 0.0 0.0 0.00 0.00 0.00 34 1008.9
20260505113019 81 0 0.0 0.0 0.00 0.00 0.00 34 1008.9
20260505100044 79 0 0.0 0.0 0.00 0.00 0.00 37 1009.5
20260505093054 78 0 0.0 0.0 0.00 0.00 0.00 34 1009.8
20260505083112 76 0 0.0 0.0 0.00 0.00 0.00 34 1010.4
20260505080121 76 0 0.0 0.0 0.00 0.00 0.00 34 1010.6
20260505073129 76 0 0.0 0.0 0.00 0.00 0.00 34 1010.7
20260505070137 75 0 0.0 0.0 0.00 0.00 0.00 35 1011.0